Location: Mahannah Oil Field
(37.4664°N, 96.6003°W)
Time: 01:28:58
(UTC+00:00)

Tiros 1 despin weight - Pass Details

Date: 31 January 2021
Orbit: 593 x 642 km, 48.2° (Epoch: 25 February)

Event Time Altitude Azimuth Distance (km) Brightness Sun altitude
Rises 20:12:12 0° 288° (WNW) 2,907 ? 31.2°
Reaches altitude 10° 20:15:01 10° 304° (NW) 1,991 ? 31.0°
Maximum altitude 20:18:32 21° 354° (N) 1,383 ? 30.7°
Drops below altitude 10° 20:22:01 10° 45° (NE) 1,967 ? 30.3°
Sets 20:24:46 0° 61° (ENE) 2,862 ? 30.1°
